DECAYED
Showing default

HIBER-3, 47942 (Decayed)

Orbit data source: Space-Track

HIBER-3, 47942 was a payload satellite owned by Hiber (NL) in LEO that was launched on Mon, 22 Mar 2021 UTC via a SOYUZ-2-1A launch vehicle from the Tyuratam Missile And Space Complex (TTMTR). Payload-class satellites include a variety of spacecraft equipped with specific instruments for various scientific and technological missions. These include communications satellites like Starlink; space stations such as the ISS; scientific satellites like the Hubble; Earth observation satellites from companies like Planet Labs, Umbra, and HawkEye 360; GPS; miniature CubeSats for education and research; and military/defense satellites.

Not visible in the next 10 days
Identifier
47942, 2021-022L
Orbit
Decayed
Country
Flag of NLNL / NETH
Related business
Manufacturer
ISIS BV
Mission
Decayed Commercial Communications
Bus & Motor
CUBESAT 3U, Unknown motor
Mass
4 kg wet, 4 kg dry
Launch date (UTC)
2021-03-22 (5 years ago)
Launch vehicle
SOYUZ-2-1A
Launch site
Tyuratam Missile And Space Complex (TTMTR)
Object type
Payload
Rocket body
Debris
Shape & HBR
Box + 2 Pan, 0.1 m
Radar Cross Section
0.035 m², Medium (>0.1 m² and < 1m²)

Expand to show TLE details & history
Last TLE update: 1 year ago

TLE from 1 year ago
0 HIBER-3
1 47942U 21022L   25029.56820695  .07037280  25398-5  14644-2 0  9992
2 47942  97.4030 304.2177 0006523 138.6889 221.4900 16.31042332213867
Epoch: 2025-01-29T13:38Z
TLE epoch observation values (Epoch: 2025-01-29T13:38:13.080Z)
Latitude
-0.00004°
Longitude
-29.39454°
Altitude
196.191 km
Speed
7.787 km/s
True Right ascension
20h 16m 52s
True Declination
0° 00' 00"
Sunlit
Object was in daylight at epoch
Visualization orbit readout
Latitude
Unknown
Longitude
Unknown
Altitude
Unknown
Speed
Unknown
Apparent Right ascension
Unknown
Apparent Declination
Unknown
Sunlit
N/A
Visualization observer readout
Local Sidereal Time
21:54:16
Azimuth
Unknown
Elevation
Unknown
Doppler factor
Unknown
Orbital elements
Apogee altitude
190.842 km
Perigee altitude
182.277 km
Semi-major axis
6,564.697 km
Eccentricity
0.00065
Inclination
97.403°
RAAN
304.2177°
Arg. of periapsis
138.6889°
True anomaly
221.44051°
Mean anomaly
221.49°
Eccentric anomaly
221.46525°
Mean motion
4.08057 °/min
Orbital period
88.22 mins
BSTAR
0.0014644
Loading maneuver chart data...
Computing Atmospheric mass density...
Loading historical data...
Loading historical data...
Loading historical data...
Loading historical data...
Loading historical data...
Loading historical data...
Loading historical data...

Documentation

Showing up to 5 results
|